Tracking 18851 objects as of 25-Nov-2017
HD Live streaming from Space Station
objects crossing your sky now

COSMOS 1827

Track COSMOS 1827 now!
10-day predictions
COSMOS 1827 is classified as:


NORAD ID: 17582
Int'l Code: 1987-026A
Perigee: 1,400.0 km
Apogee: 1,419.7 km
Inclination: 82.6 °
Period: 113.8 minutes
Semi major axis: 7780 km
RCS: 0.9685 m2 (medium)
Launch date: March 13, 1987
Source: Commonwealth of Independent States (former USSR) (CIS)
Launch site: PLESETSK MISSILE AND SPACE COMPLEX (PKMTR)
aabbcc
Your satellite tracking list
Your tracking list is empty




NASA's NSSDC Master Catalog

Two Line Element Set (TLE):
1 17582U 87026A   17328.93067818 +.00000015 +00000-0 +20303-4 0  9997
2 17582 082.5724 039.0441 0012610 072.8962 338.7970 12.64918779417382
Source of the keplerian elements: AFSPC